Regional Weather Roundup
Issued by NWS Kansas City/Pleasant Hill, MO

Home | Current Version | Previous Version | Text Only | Print | Product List | Glossary On
Versions: 1 2 3 4 5 6 7 8 9 10 11 12 13 14 15 16 17 18 19 20 21 22 23 24 25 26 27 28 29 30 31 32 33 34 35 36 37 38 39 40 41 42 43 44 45 46 47 48 49 50
000
ASUS43 KEAX 280010
RWREAX

WEATHER ROUNDUP FOR EASTERN KANSAS AND NORTHWEST MISSOURI
NATIONAL WEATHER SERVICE KANSAS CITY/PLEASANT HILL MO
700 PM CDT WED AUG 27 2014

KSZ040-057-103>105-MOZ028-029-037-043-280100-
...KANSAS CITY METROPOLITAN AREA...

CITY           SKY/WX    TMP DP  RH WIND       PRES   REMARKS
K.C. INTL      CLOUDY    82  70  66 E8        30.04S
6HR MIN TEMP:  77; 6HR MAX TEMP:  86;

K.C. DOWNTOWN  CLOUDY    84  71  65 E8        30.02S
6HR MIN TEMP:  83; 6HR MAX TEMP:  88;

LEES SUMMIT    MOCLDY    81  72  74 E5        30.04S
6HR MIN TEMP:  81; 6HR MAX TEMP:  86;

OLATHE - IXD   CLOUDY    83  73  72 E7        30.03F
6HR MIN TEMP:  83; 6HR MAX TEMP:  90;

OLATHE - OJC   CLOUDY    82  72  71 SE8       30.03S
6HR MIN TEMP:  82; 6HR MAX TEMP:  87;

LAWRENCE       CLOUDY    85  72  65 E8        30.01F HX  91

$$

MOZ001>008-011>017-020>025-030>033-038>040-044>046-053-054-280100-
...NORTHERN AND CENTRAL MISSOURI...

CITY           SKY/WX    TMP DP  RH WIND       PRES   REMARKS
ST. JOSEPH     CLOUDY    79  72  79 E5        30.04S
6HR MIN TEMP:  72; 6HR MAX TEMP:  82;

MOSBY          MOCLDY    81  72  74 E5        30.03S
WHITEMAN AFB   CLEAR     81  55  40 E3        30.03F
6HR MIN TEMP:  76; 6HR MAX TEMP:  85; 6HR PCP: TRACE;

CLINTON        CLEAR     84  73  70 CALM      30.03F HX  91
SEDALIA        CLEAR     84  73  69 E7        30.04F HX  90
6HR MIN TEMP:  83; 6HR MAX TEMP:  88; 6HR PCP: TRACE;

WARSAW         NOT AVBL
MARSHALL       CLEAR     84  73  70 E5        30.04F HX  91
CHILLICOTHE      N/A     80  71  74 NE3       30.06S
6HR MIN TEMP:  74; 6HR MAX TEMP:  82;

MOBERLY        PTCLDY    81  70  69 E5        30.06F
KIRKSVILLE     MOCLDY    76  70  82 CALM      30.08S
6HR MIN TEMP:  73; 6HR MAX TEMP:  78; 6HR PCP:  0.12;


$$

MOZ041-047>049-056>058-063>065-088>090-097-280100-
...EASTERN AND SOUTHERN MISSOURI...

CITY           SKY/WX    TMP DP  RH WIND       PRES   REMARKS
ST. LOUIS INTL CLOUDY    79  70  74 SW12      30.10R
6HR MIN TEMP:  77; 6HR MAX TEMP:  95; 6HR PCP:  0.13;

SPIRIT OF STL  LGT RAIN  73  69  87 SE6       30.09R
COLUMBIA       PTCLDY    79  67  66 E6        30.04F
JEFFERSON CITY MOCLDY    81  66  60 SE7       30.02S
ROLLA          CLOUDY    76  66  71 E9        30.06R
LEBANON        PTCLDY    84  70  61 NE7       30.06S
OSAGE BEACH    MOCLDY    82  66  57 E7        30.03S
SPRINGFIELD    CLOUDY    85  68  56 NE7       30.02F
BRANSON        MOCLDY    93  64  38 SE8       30.03S HX  95
NEVADA         PTCLDY    84  66  54 SE7       30.03R
JOPLIN         PTCLDY    85  68  56 E9        30.01S
WEST PLAINS    MOCLDY    83  66  56 SE5       30.05F

$$

IAZ060-094-KSZ022-034>040-054-083-096-NEZ052-066-093-280100-
...KANSAS...SOUTHEAST NEBRASKA AND IOWA...

CITY           SKY/WX    TMP DP  RH WIND       PRES   REMARKS
TOPEKA         CLOUDY    84  72  67 NE7       30.01F
6HR MIN TEMP:  84; 6HR MAX TEMP:  89;

MANHATTAN      MOSUNNY   85  72  65 E13       30.00R HX  91
EMPORIA        MOSUNNY   89  67  47 E7        29.99S HX  92
CHANUTE        MOSUNNY   93  64  38 S9        29.99R HX  94
WICHITA        PTSUNNY   89  63  41 SE12      29.98S HX  90
OMAHA          CLOUDY    73  68  84 E8        30.05F
LINCOLN        CLOUDY    75  70  84 S6        30.04S
FALLS CITY     CLOUDY    78  73  84 E6        30.03F
LAMONI         MOCLDY    75  70  84 CALM      30.07F
DES MOINES     CLOUDY    75  67  76 SE8       30.07S

$$




USA.gov is the U.S. government's official web portal to all federal, state and local government web resources and services.